AirNav   ATP
 
 353 users online  

UT99 West Desert Airpark
Cedar Valley, Utah, USA

GOING TO CEDAR VALLEY?


FAA INFORMATION EFFECTIVE 19 JULY 2018

Location

FAA Identifier: UT99
Lat/Long: 40-14-33.3600N / 112-05-34.9200W
40-14.556000N / 112-05.582000W
40.2426000 / -112.0930333
(estimated)
Elevation: 4902 ft. / 1494 m (estimated)
From city: 2 miles N of CEDAR VALLEY, UT
Time zone: UTC -6 (UTC -7 during Standard Time)
Zip code: 84013

Airport Operations

Airport use: Private use. Permission required prior to landing
Activation date: 10/2003
Control tower: no
ARTCC: SALT LAKE CITY CENTER
FSS: CEDAR CITY FLIGHT SERVICE STATION
Attendance: 0900-1700
Wind indicator: yes
Segmented circle: no

Airport Communications

WX AWOS-3PT at PVU (17 nm E): 135.175 (801-373-9782)

Nearby radio navigation aids

VOR radial/distance  VOR name  Freq  Var
FFUr238/7.2FAIRFIELD VORTAC116.6016E
PVUr261/17.1PROVO VOR/DME108.4015E
TCHr172/36.8WASATCH VORTAC116.8016E

Airport Services

Fuel available: MOGAS

Runway Information

Runway 17/35

Dimensions: 2600 x 24 ft. / 792 x 7 m
Surface: asphalt, in good condition
RUNWAY 17  RUNWAY 35
Traffic pattern: leftright

Runway 17R/35L

Dimensions: 1100 x 30 ft. / 335 x 9 m
Surface: turf, in good condition
RUNWAY 17R  RUNWAY 35L
Traffic pattern: leftleft

Airport Ownership and Management from official FAA records

Ownership: Privately-owned
Owner: MARK D. PRINGLE
614 N 18150 WEST
FAIRFIELD, UT 84013
Phone 801-652-5460
Manager: MARK & ALINA PRINGLE
614 N 18150 W
FAIRFIELD, UT 84013
Phone 801-652-5460
ALINA PRINGLE: 801-580-5688

Airport Operational Statistics

Aircraft based on the field: 24
Single engine airplanes: 12
Ultralights: 12
    

Additional Remarks

CTAF: 123.00
MONITOR 122.75 FOR STUDENT TRNG ACTIVITIES IN THE VCNTY OF THE ARPT.
REQ SIGNED WAIVER PRIOR TO LDG. IT CAN BE FOUND ON OUR WEBSITE WWW.RMKPLANES.COM.

Instrument Procedures

There are no published instrument procedures at UT99.

Some nearby airports with instrument procedures:

KPVU - Provo Municipal Airport (17 nm E)
U42 - South Valley Regional Airport (23 nm N)
KTVY - Bolinder Field-Tooele Valley Airport (25 nm NW)
U14 - Nephi Municipal Airport (32 nm S)
KSLC - Salt Lake City International Airport (33 nm N)
 
Loc | Ops | Rwys | IFR | FBO | Links
Com | Nav | Svcs | Stats | Notes

TAC Air
 
Area around UT99 (West Desert Airpark)
 
Road maps at: MapQuest Bing Google
 
Aerial photo
WARNING: Photo may not be current or correct
Aerial photo of UT99 (West Desert Airpark)
Photo by Kaija Kalm
Photo taken 29-Apr-2013
looking northwest.

Do you have a better or more recent aerial photo of West Desert Airpark that you would like to share? If so, please send us your photo.

 
Sectional chart

 
Airport distance calculator
Flying to West Desert Airpark? Find the distance to fly.

From to UT99

Sunrise and sunset
Times for 19-Jul-2018
 Local
(UTC-6)
 Zulu
(UTC)
Morning civil twilight05:4411:44
Sunrise06:1612:16
Sunset20:5402:54
Evening civil twilight21:2503:25

Current date and time
Zulu (UTC)  19-Jul-2018 08:58:09
Local (UTC-6)  19-Jul-2018 02:58:09
 
METAR
KPVU 
17nm E 
190756Z AUTO 17005KT CLR 24/04 A3008 RMK AO2 SLP118 T02390044 PWINO $
KU42 
23nm N 
190835Z AUTO 31008KT 10SM CLR 22/05 A3008 RMK AO1 T02200054
KTVY 
25nm NW 
190835Z AUTO 00000KT 10SM CLR 19/03 A3006 RMK AO2
KSLC 
33nm N 
190854Z 23006KT 10SM FEW150 SCT200 22/04 A3003 RMK AO2 SLP106 T02220039 50003
KHCR 
34nm NE 
190835Z AUTO 12004KT 10SM CLR 12/05 A3019 RMK AO2
TAF
KPVU 
17nm E 
190520Z 1906/2006 15007KT P6SM SCT200 FM191800 27006KT P6SM SCT200 FM200300 VRB04KT P6SM SCT200
NOTAMs
Click for the latest NOTAMs
NOTAMs are issued by the DoD/FAA and will open in a separate window not controlled by AirNav.

 

 
 

Would you like to see your business listed on this page?

 If your business provides an interesting product or service to pilots, flight crews, aircraft, or users of the West Desert Airpark, you should consider listing it here.  To start the listing process, click on the button below
 
Add a business
 

Other Pages about West Desert Airpark

rockymountainkitplanes.com/airpark.html
 
Update a link
 
Copyright © AirNav, LLC. All rights reserved. Privacy Policy  Contact